User: anonymous
Location: Broad Creek
(39.7000°N, 76.2570°W)
Time: 06:05:57
(UTC-04:00)
Language:

ATLAS 5 CENTAUR R/B - Orbit

View from above orbital plane
View from above orbital plane
View from above satellite
View from above satellite

Ground track
Ground track

The orbit data is extracted from the following two-line orbital elements,

1 31702U 07027B   14105.81587912 0.00000700  00000-0  31020-3 0    00
2 31702  63.3790 354.6401 0136000 347.0972  12.9028 14.18115625    04
Epoch (UTC): 15 April 2014 19:34:51
Eccentricity: 0.0136000
inclination: 63.3790°
perigee height: 733 km
apogee height: 930 km
right ascension of ascending node: 354.6401°
argument of perigee: 347.0972°
revolutions per day: 14.18115625
mean anomaly at epoch: 12.9028°
orbit number at epoch: 0

The dashed part of the orbit path shows where the satellite is in the earth's shadow,  

DLR